Temp
80 75 70 67 66 67 73 77 79 79 77 77 77 77 75 74 72 70 70 73 73 71 72 69 68 65 72 71 64 72 69 69 62 71 71 71 72 71 73 74 74 73 72
72 66 66 66 65 67 71 76 77 78 79 77 76 76 75 75 73 70 66 67 68 70 71 70 67 69 67 64 71 62 68 70 64 63 64 70 68 63 70 69 65 68 67
70 68 66 64 65 70 74 77 79 79 79 78 77 75 75 75 72 70 70 70 68 66 67 63 64 68 66 69 63 69 62 67 65 62 57 59 60 66 59 59 62 60 63
66 77 75 71 72 75 77 79 80 81 79 77 77 77 75 75 75 73 70 69 69 67 65 62 62 64 63 61 64 65 61 63 58 57 59 56 55 53 56 56 55 58 62
81 78 77 79 80 79 80 80 80 78 77 78 77 76 75 73 73 72 71 70 67 66 66 66 64 62 61 59 61 64 59 55 55 54 52 55 51 50 55 54 55 60 66
82 81 81 80 80 78 78 78 77 77 77 76 74 75 73 73 57 57 62 71 71 67 66 67 66 63 62 59 58 58 59 55 55 53 53 52 53 55 52 52 55 62 55
80 79 79 79 77 76 77 76 74 73 73 73 74 74 72 73 57 51 53 68 71 71 66 65 66 66 64 66 59 56 57 55 57 56 53 52 53 52 52 51 57 61 58
79 78 78 77 76 75 74 73 70 70 69 69 68 65 71 72 57 52 50 59 68 70 70 67 65 60 59 60 61 62 60 59 56 55 56 56 56 54 55 55 59 61 57
77 76 76 75 74 74 72 70 70 70 70 70 71 70 70 71 57 52 54 70 71 70 71 68 67 66 55 50 56 58 58 57 55 54 53 52 50 51 55 59 59 52 52
75 74 75 75 74 73 72 71 71 71 71 73 71 71 68 71 59 52 55 71 69 72 71 70 57 63 51 48 54 59 56 56 56 53 52 50 50 52 51 59 57 56 59
76 75 75 74 72 73 71 71 70 69 69 69 69 69 70 69 69 53 48 66 70 70 72 73 74 52 48 47 47 57 56 56 55 56 53 53 53 55 57 61 62 63 64
75 74 74 73 74 74 71 70 70 69 68 68 68 69 73 71 62 59 48 46 53 61 66 72 71 47 45 45 47 48 47 51 53 52 51 51 51 52 58 60 64 67 70
73 73 73 73 73 73 70 69 70 70 70 69 70 69 70 72 72 57 46 46 48 60 67 55 48 45 45 46 44 45 46 52 52 51 51 51 53 57 63 63 66 66 66
72 72 72 71 70 71 73 73 71 70 67 67 67 66 68 68 68 70 70 68 59 60 57 64 57 51 46 50 49 48 52 52 51 51 51 53 55 59 62 67 65 65 63
71 72 71 73 71 71 70 70 71 70 66 66 66 65 65 65 64 50 49 60 59 52 46 56 58 56 53 52 51 50 50 51 49 50 51 52 55 58 61 68 68 65 64
70 72 73 72 72 70 67 67 57 50 49 46 44 51 65 52 46 43 41 40 39 39 48 53 59 57 52 51 50 50 50 50 52 53 53 55 59 64 63 65 67 66 61
68 69 71 68 70 65 64 63 62 65 50 46 44 40 39 41 39 40 39 39 39 40 50 54 54 53 52 50 50 50 50 53 54 54 59 63 66 67 64 66 65 64 63
69 54 69 69 65 63 62 64 64 60 59 64 49 47 41 39 39 39 39 42 53 47 53 50 48 49 50 50 51 50 51 55 62 66 69 69 67 66 65 64 63 62 59
68 69 67 67 66 63 65 61 61 61 60 60 61 55 51 42 40 39 40 51 50 49 49 50 51 51 51 51 57 61 62 66 65 66 66 66 67 66 64 64 55 47 50
67 51 54 64 64 62 61 63 62 60 59 58 57 55 57 49 54 50 48 48 48 48 52 55 60 64 65 66 67 66 64 63 64 64 64 64 65 64 65 60 56 57 57
64 64 53 65 63 62 62 59 56 54 51 49 50 50 35 47 47 47 46 48 54 64 65 66 67 68 68 67 67 65 62 63 65 64 63 64 64 63 62 59 55 59 58
65 61 61 60 59 61 57 57 53 50 49 48 49 47 37 50 51 49 58 61 63 65 66 66 66 66 65 65 64 65 64 63 62 61 60 59 57 56 53 51 51 51 51
62 62 58 60 60 54 55 53 51 49 48 47 47 47 49 50 56 62 62 64 64 64 65 65 64 64 64 63 64 64 62 60 58 59 59 57 53 52 52 52 51 50 50
64 60 54 61 61 59 60 60 58 47 48 48 48 49 52 57 60 62 63 63 63 64 64 64 63 61 61 62 62 62 59 58 59 60 55 55 55 52 53 54 53 54 55
65 56 55 56 60 62 61 59 60 59 60 58 56 57 64 64 65 64 63 63 63 63 62 62 62 60 59 57 57 55 38 36 51 37 57 57 56 56 57 56 57 55 54
58 61 60 63 64 67 66 64 65 64 62 66 64 66 66 65 65 64 64 63 62 62 62 62 61 59 58 55 50 36 33 33 44 35 55 57 54 54 55 56 55 54 54
MSLP
1014.68 1015.89 1016.96 1017.20 1017.15 1017.01 1017.10 1016.17 1015.54 1015.23 1015.38 1015.57 1015.66 1015.72 1015.87 1016.15 1016.01 1016.22 1016.42 1016.33 1016.27 1016.63 1016.84 1017.13 1017.11 1017.44 1017.01 1017.11 1017.55 1017.26 1017.38 1017.61 1017.43 1016.70 1016.86 1017.01 1017.71 1018.12 1018.15 1018.72 1018.94 1019.13 1019.06
1015.45 1015.91 1015.09 1016.78 1016.50 1017.35 1016.54 1016.22 1015.38 1014.78 1014.77 1015.07 1015.20 1015.24 1015.26 1015.39 1015.53 1015.60 1016.09 1016.10 1015.99 1015.69 1016.06 1016.36 1016.52 1016.83 1016.86 1016.92 1016.66 1017.37 1017.14 1016.90 1017.33 1017.34 1017.50 1017.20 1017.88 1018.56 1018.32 1018.49 1019.32 1019.25 1019.34
1015.11 1015.38 1015.54 1014.86 1016.08 1016.48 1015.87 1015.43 1014.83 1014.28 1014.25 1014.48 1014.66 1014.64 1014.72 1014.70 1014.77 1014.90 1015.19 1015.34 1015.53 1015.47 1015.34 1015.93 1016.03 1016.03 1016.21 1016.24 1016.66 1016.50 1016.86 1016.87 1017.09 1017.48 1017.89 1018.04 1018.26 1018.61 1019.00 1019.55 1019.31 1019.43 1019.33
1014.92 1014.70 1015.06 1015.04 1015.59 1015.35 1015.16 1014.75 1014.21 1013.91 1014.00 1014.26 1014.30 1014.23 1014.30 1014.22 1014.21 1014.19 1014.56 1014.70 1014.70 1014.87 1015.17 1015.26 1015.37 1015.44 1015.58 1015.72 1015.82 1016.07 1016.38 1016.73 1017.32 1017.66 1017.74 1018.25 1018.34 1018.76 1019.21 1019.26 1019.22 1019.13 1018.72
1013.64 1014.18 1014.30 1014.42 1014.64 1014.78 1014.57 1014.24 1014.06 1014.38 1014.31 1014.17 1014.02 1014.00 1014.02 1014.13 1013.98 1014.02 1014.13 1014.20 1014.19 1014.26 1014.38 1014.46 1014.61 1014.78 1014.92 1015.06 1015.42 1015.29 1015.76 1016.16 1016.45 1016.90 1017.27 1017.50 1018.04 1018.29 1018.22 1018.58 1018.61 1018.24 1017.92
1013.60 1013.77 1013.99 1014.18 1014.38 1014.49 1014.26 1014.20 1014.13 1014.18 1014.09 1014.20 1014.43 1014.12 1014.04 1014.01 1014.03 1014.16 1014.13 1013.68 1013.43 1013.55 1013.44 1013.31 1013.50 1013.84 1014.16 1014.26 1014.47 1014.64 1014.94 1015.09 1015.29 1015.70 1015.96 1016.20 1016.51 1016.79 1017.55 1017.77 1017.89 1017.12 1017.63
1013.84 1014.15 1014.23 1014.24 1014.38 1014.54 1014.42 1014.45 1014.63 1014.62 1014.62 1014.49 1014.13 1014.05 1013.99 1013.67 1013.88 1013.90 1013.94 1013.74 1012.97 1012.62 1012.82 1012.73 1012.64 1012.87 1013.15 1013.28 1013.42 1013.66 1013.82 1014.00 1014.21 1014.52 1014.64 1015.02 1015.36 1015.96 1016.62 1017.17 1017.02 1016.97 1017.20
1014.18 1014.36 1014.46 1014.46 1014.61 1014.90 1014.94 1015.02 1015.16 1015.19 1015.02 1014.82 1014.51 1014.22 1013.79 1013.66 1013.58 1013.75 1013.57 1013.39 1012.74 1012.21 1012.06 1012.23 1012.25 1012.51 1012.78 1012.91 1012.60 1012.39 1012.57 1012.92 1013.36 1013.67 1013.76 1014.00 1014.42 1015.16 1015.68 1016.16 1016.28 1016.60 1017.12
1014.29 1014.47 1014.64 1014.81 1014.93 1015.05 1015.08 1015.17 1015.06 1014.88 1014.61 1014.28 1013.95 1013.73 1013.43 1013.28 1013.21 1013.26 1013.30 1012.46 1011.59 1011.54 1011.43 1011.44 1011.51 1011.58 1011.95 1012.44 1012.63 1012.29 1012.09 1012.13 1012.16 1012.49 1012.96 1013.38 1014.07 1014.65 1015.06 1015.48 1015.64 1016.43 1016.43
1014.72 1014.88 1014.97 1015.04 1015.06 1014.93 1014.99 1014.88 1014.86 1014.67 1014.13 1013.93 1013.47 1013.32 1013.05 1012.76 1012.64 1012.64 1012.70 1012.14 1011.34 1010.80 1010.39 1010.39 1010.49 1010.89 1011.12 1011.19 1012.34 1011.96 1011.75 1011.53 1011.74 1012.26 1012.89 1013.35 1013.83 1014.36 1014.87 1014.82 1015.28 1015.49 1014.82
1015.02 1015.03 1014.96 1015.09 1015.16 1015.02 1015.07 1014.94 1014.78 1014.49 1014.20 1013.79 1013.44 1013.15 1012.80 1012.31 1012.27 1012.35 1012.43 1012.29 1011.18 1010.60 1009.82 1009.19 1009.08 1009.93 1010.39 1010.57 1011.18 1011.51 1011.16 1011.14 1011.29 1011.46 1012.26 1012.78 1013.35 1013.96 1014.23 1014.22 1014.30 1014.14 1013.44
1015.10 1014.99 1014.94 1015.05 1015.01 1014.74 1014.85 1014.77 1014.56 1014.23 1013.79 1013.21 1012.70 1012.26 1011.58 1011.62 1011.59 1011.65 1011.83 1011.83 1011.91 1011.41 1010.40 1009.26 1009.04 1009.82 1010.07 1010.25 1010.56 1010.58 1010.64 1010.92 1010.99 1011.53 1011.48 1011.97 1012.66 1013.22 1013.24 1013.28 1013.32 1013.37 1013.00
1015.02 1014.90 1014.78 1014.74 1014.65 1014.56 1014.46 1014.24 1013.86 1013.26 1012.88 1012.42 1011.99 1011.65 1011.20 1011.06 1011.06 1011.03 1011.27 1011.66 1011.46 1011.10 1010.28 1010.29 1010.26 1010.10 1010.03 1010.02 1010.11 1010.18 1010.32 1010.51 1010.57 1010.93 1011.36 1011.76 1012.17 1011.95 1011.62 1012.12 1012.57 1013.17 1013.50
1014.79 1014.66 1014.53 1014.39 1014.24 1014.21 1013.93 1013.44 1013.15 1012.92 1012.75 1012.50 1012.16 1011.94 1011.48 1011.17 1010.92 1010.76 1011.07 1011.24 1010.95 1010.55 1010.16 1009.72 1009.53 1009.86 1009.99 1009.90 1009.99 1010.18 1010.18 1010.30 1010.49 1010.83 1011.15 1011.46 1011.58 1011.39 1011.36 1011.59 1011.95 1012.55 1013.04
1014.51 1014.32 1014.14 1013.74 1013.49 1013.32 1013.30 1013.30 1013.07 1013.03 1012.96 1013.10 1012.90 1012.50 1012.03 1011.40 1011.29 1011.95 1012.43 1011.87 1011.55 1011.44 1011.48 1010.32 1009.39 1009.28 1009.44 1009.63 1009.73 1009.99 1010.12 1010.29 1010.49 1011.00 1011.12 1011.25 1011.23 1010.95 1011.06 1010.66 1011.00 1011.45 1011.82
1014.24 1013.83 1013.38 1013.45 1013.12 1013.00 1013.05 1012.80 1012.85 1012.95 1012.76 1012.66 1012.59 1012.60 1012.32 1012.25 1012.16 1012.24 1012.22 1012.25 1012.02 1011.53 1011.04 1010.00 1008.98 1008.76 1009.00 1009.12 1009.33 1009.56 1009.88 1010.09 1010.32 1010.58 1010.78 1010.58 1010.33 1009.86 1010.02 1010.30 1010.69 1010.99 1011.49
1014.01 1013.94 1013.58 1013.32 1012.98 1013.13 1013.08 1012.97 1012.58 1011.84 1011.59 1011.52 1011.66 1012.20 1012.59 1012.45 1012.19 1012.32 1012.16 1011.79 1011.14 1010.83 1010.38 1009.54 1009.04 1008.82 1008.86 1008.98 1009.23 1009.24 1009.46 1009.73 1010.18 1010.07 1009.95 1009.58 1009.30 1009.27 1009.81 1009.82 1010.43 1010.75 1010.94
1013.95 1014.00 1013.68 1013.00 1013.30 1013.31 1013.08 1012.81 1012.37 1011.97 1011.38 1010.94 1011.62 1011.88 1012.03 1012.08 1012.11 1012.06 1011.80 1011.25 1010.46 1010.44 1009.95 1009.75 1009.60 1009.28 1008.96 1009.15 1009.42 1009.56 1009.70 1009.66 1009.06 1008.66 1008.72 1009.02 1009.24 1009.40 1009.64 1009.90 1010.17 1010.73 1011.74
1014.02 1013.74 1013.88 1013.83 1013.53 1013.08 1012.79 1012.60 1012.21 1011.79 1011.77 1011.62 1011.41 1011.43 1011.56 1011.97 1011.64 1011.72 1011.61 1011.17 1010.84 1010.69 1010.30 1009.92 1009.79 1009.58 1009.46 1009.39 1008.99 1008.95 1008.81 1008.98 1009.10 1009.04 1009.24 1009.32 1009.49 1009.62 1009.69 1010.01 1011.06 1011.79 1012.29
1013.69 1014.54 1014.50 1014.09 1013.44 1013.03 1012.68 1012.16 1012.08 1012.21 1011.92 1011.62 1011.62 1011.80 1011.61 1011.96 1011.42 1011.70 1011.87 1011.71 1011.36 1010.97 1010.56 1010.04 1009.50 1008.93 1008.57 1008.32 1008.18 1008.48 1009.11 1009.27 1009.37 1009.47 1009.71 1009.87 1010.09 1010.05 1010.02 1010.65 1011.43 1011.78 1012.17
1014.22 1014.07 1014.25 1013.76 1013.20 1012.86 1012.89 1012.94 1012.81 1012.72 1012.63 1012.50 1012.43 1012.42 1012.76 1012.54 1012.38 1012.41 1012.28 1011.91 1010.99 1010.13 1009.51 1009.03 1008.81 1008.65 1008.75 1008.85 1008.91 1009.34 1009.72 1009.68 1009.66 1009.87 1010.26 1010.51 1010.66 1010.70 1010.97 1011.48 1012.30 1012.44 1012.99
1013.88 1014.18 1014.20 1013.83 1013.75 1013.59 1013.74 1013.68 1013.62 1013.34 1013.02 1012.80 1012.63 1012.81 1012.79 1012.66 1012.69 1012.49 1011.79 1011.04 1010.80 1010.64 1010.46 1010.22 1010.12 1010.16 1010.18 1010.10 1009.87 1009.62 1009.77 1010.02 1010.48 1010.85 1011.06 1011.27 1011.51 1011.94 1012.52 1012.82 1013.00 1013.25 1013.53
1014.47 1014.32 1014.41 1014.19 1014.17 1014.26 1014.46 1014.33 1014.14 1013.86 1013.58 1013.42 1013.34 1013.32 1013.21 1013.03 1012.50 1011.78 1011.55 1011.68 1011.77 1011.72 1011.58 1011.40 1011.16 1011.09 1011.07 1011.11 1010.96 1010.68 1010.73 1011.23 1011.77 1011.91 1011.66 1011.93 1012.41 1012.82 1013.07 1013.13 1013.35 1013.44 1013.65
1014.33 1014.23 1014.70 1014.31 1014.14 1014.35 1014.15 1013.96 1014.24 1014.53 1014.36 1014.18 1013.93 1013.72 1013.43 1012.91 1012.34 1012.18 1012.26 1012.47 1012.49 1012.40 1012.27 1012.18 1012.38 1012.41 1012.09 1011.76 1011.89 1011.87 1012.33 1012.69 1012.59 1012.34 1012.70 1012.56 1012.83 1012.94 1013.07 1013.10 1013.33 1013.47 1013.70
1013.77 1014.58 1014.75 1014.77 1014.24 1013.73 1014.04 1014.00 1013.87 1013.86 1013.84 1013.82 1013.73 1013.23 1012.50 1012.09 1012.19 1012.50 1012.75 1012.91 1012.97 1012.94 1013.00 1013.09 1013.07 1013.17 1013.31 1013.32 1013.48 1013.81 1014.56 1014.19 1013.74 1014.03 1013.17 1013.16 1013.36 1013.36 1013.28 1013.22 1013.22 1013.46 1013.77
1014.47 1014.55 1014.73 1014.40 1013.98 1013.42 1013.22 1013.31 1013.00 1012.99 1013.08 1012.88 1012.65 1012.57 1012.54 1012.53 1012.67 1012.89 1013.11 1013.36 1013.38 1013.50 1013.51 1013.67 1013.82 1013.96 1014.05 1014.56 1015.11 1015.49 1015.35 1015.36 1014.90 1014.53 1013.79 1013.62 1013.79 1013.78 1013.74 1013.65 1013.60 1013.64 1013.89
Wind_Speed
9 14 10 7 8 18 17 11 10 8 8 10 11 10 10 11 10 8 10 12 12 12 10 12 12 9 9 6 5 9 7 7 8 10 3 6 8 7 6 6 6 6 2
11 9 10 3 5 13 14 16 11 10 9 10 11 11 11 12 11 11 11 10 10 12 13 13 13 10 13 7 8 8 11 8 5 9 6 8 7 4 11 7 4 2 0
8 7 6 5 9 18 13 13 11 9 9 11 11 11 12 11 9 10 13 13 12 12 8 9 11 14 12 10 8 11 7 10 7 7 3 0 3 8 2 3 5 3 4
5 5 4 4 14 12 11 9 8 8 9 9 11 11 10 10 10 9 10 11 11 11 12 11 11 14 14 11 11 13 7 8 7 7 8 4 2 2 3 5 5 5 8
1 3 6 8 6 7 7 6 6 6 7 7 8 9 9 9 8 9 9 10 10 11 13 14 13 13 15 14 10 15 12 9 9 9 8 8 6 5 11 4 5 7 8
2 1 1 3 4 5 5 5 5 7 7 7 9 9 8 7 2 7 9 9 11 10 11 12 12 15 18 18 19 18 15 13 13 11 11 10 13 9 4 5 6 9 8
5 4 4 5 5 6 6 6 7 7 7 7 7 8 8 9 2 7 6 9 10 11 11 11 11 8 12 13 18 22 22 20 19 13 12 13 10 10 8 7 9 9 6
5 6 6 7 6 5 4 6 8 7 7 7 7 6 9 10 5 10 5 6 10 11 11 13 12 7 9 12 13 13 13 14 15 13 13 11 10 10 10 10 11 9 3
7 7 7 6 6 7 8 10 8 8 9 10 10 13 11 11 9 9 6 11 11 12 12 11 11 10 8 9 10 15 10 10 12 16 14 11 11 10 10 8 8 6 5
7 6 6 6 7 7 7 7 7 7 9 10 11 12 13 13 11 11 7 9 12 11 13 16 9 12 8 4 9 14 11 10 9 8 8 7 9 9 12 10 9 10 10
5 5 6 6 6 6 7 6 7 9 9 10 12 12 14 12 12 9 5 10 12 11 12 11 9 10 13 14 12 11 11 7 10 11 9 8 6 8 10 12 12 11 10
5 6 6 6 6 7 7 8 9 10 11 11 11 11 10 11 9 8 6 7 9 10 12 12 11 5 7 9 8 11 9 9 6 5 7 8 6 8 10 11 14 11 6
5 6 7 7 8 8 8 9 10 10 11 11 12 12 11 10 11 8 2 5 8 8 10 8 13 10 6 7 9 9 10 6 7 8 6 5 8 11 12 10 10 10 9
9 9 9 9 9 9 9 10 10 11 10 12 12 13 13 11 9 9 11 11 11 8 8 10 8 6 6 7 3 6 4 4 4 3 5 6 8 7 7 9 10 9 10
11 11 11 11 11 10 9 8 11 11 10 12 12 12 14 14 7 6 4 9 9 10 12 10 8 5 5 3 3 4 4 4 4 3 3 5 7 7 9 9 8 9 10
11 11 10 10 12 10 9 9 7 10 14 12 14 11 10 11 9 10 10 10 14 11 4 8 8 6 5 4 4 5 5 7 5 4 7 8 8 8 7 7 8 8 7
9 10 10 10 11 8 9 10 13 12 12 15 12 7 9 15 13 12 12 12 14 5 5 7 7 5 3 3 4 4 2 4 6 7 8 7 9 7 5 6 7 8 8
8 4 9 9 8 9 9 12 11 10 9 11 2 6 9 11 11 11 11 10 6 3 4 5 5 6 4 4 5 3 2 6 7 6 2 2 3 4 5 6 5 2 3
8 8 10 11 12 11 11 8 9 10 11 11 10 6 3 5 8 7 7 4 6 6 5 4 2 4 4 3 7 6 5 3 3 3 3 2 1 3 3 4 6 5 2
8 3 5 10 10 9 7 9 11 11 10 9 8 9 8 6 5 8 7 6 5 4 3 2 3 3 3 4 4 6 5 4 3 3 2 2 1 3 2 1 6 3 6
7 7 5 9 8 7 9 9 9 10 8 5 4 4 4 3 6 7 5 1 4 3 4 5 7 7 7 6 6 6 3 2 2 4 3 1 1 1 2 5 6 2 2
6 7 8 8 7 8 9 9 8 7 7 5 4 5 6 6 6 3 2 5 8 8 8 8 7 7 7 7 7 5 5 5 4 4 3 3 5 6 6 5 5 6 7
4 4 5 5 5 9 8 7 8 7 7 8 7 6 4 4 4 4 8 9 8 8 8 9 9 8 7 6 6 8 7 6 7 2 5 7 6 7 6 6 5 4 5
3 1 5 5 7 6 7 8 10 10 8 7 6 3 2 4 3 7 7 6 7 7 8 8 9 11 8 7 6 7 9 7 4 8 8 7 7 7 6 5 6 6 5
1 9 6 3 3 4 5 1 5 6 6 5 2 1 3 5 7 7 6 6 6 6 9 9 9 10 12 12 13 14 10 11 9 9 6 8 8 7 5 5 5 6 7
8 8 4 4 2 4 5 5 5 4 4 2 5 6 4 5 6 5 5 5 5 6 8 8 10 12 13 12 12 9 8 8 7 9 5 5 3 1 2 5 5 4 5
Wind_Direction
69 67 49 46 29 328 291 266 252 254 249 245 245 231 231 231 227 237 245 257 226 235 235 228 227 227 238 237 225 234 244 238 246 252 305 156 205 231 232 211 242 263 201
114 115 99 18 348 275 278 270 269 258 253 250 253 249 245 233 234 226 228 232 253 243 235 233 229 226 226 240 229 215 230 240 260 254 246 218 199 200 238 224 216 230 100
155 126 197 133 258 259 266 274 278 273 263 258 255 246 250 254 248 234 242 240 236 242 242 229 237 232 229 235 221 237 223 228 231 244 283 48 189 243 100 229 210 225 246
210 208 198 255 255 268 264 272 280 290 289 276 271 276 270 266 263 252 246 249 248 246 241 229 229 233 228 225 234 230 218 222 214 223 234 229 151 151 209 205 205 216 243
143 243 255 257 268 270 280 300 309 295 296 294 289 289 285 286 278 292 278 269 263 248 245 239 236 233 225 214 225 233 218 207 213 218 222 216 200 179 209 178 218 235 200
49 26 340 285 302 314 330 334 323 346 336 337 323 309 312 298 79 240 256 284 277 272 268 257 237 225 231 227 224 227 214 212 221 214 222 220 216 215 164 183 211 217 229
73 71 43 16 3 352 353 356 5 0 343 326 307 317 323 306 0 270 257 281 287 288 273 267 263 245 234 249 231 229 227 226 226 217 219 212 203 183 166 202 224 214 208
60 50 43 28 20 13 356 333 333 336 330 321 310 288 296 289 305 287 253 279 278 275 280 277 274 249 249 257 260 252 229 228 225 227 222 213 192 172 182 192 207 214 232
28 27 21 8 341 325 320 321 324 325 320 315 304 298 297 299 296 288 257 293 277 276 273 256 242 256 266 267 269 264 249 222 214 216 219 179 168 173 186 194 172 171 216
13 11 354 341 320 328 337 327 332 325 308 323 316 307 301 299 294 267 270 285 282 291 280 250 216 255 237 214 258 261 248 232 201 181 171 178 173 180 164 199 172 196 220
353 330 328 335 325 302 314 312 312 308 318 314 316 312 302 296 313 299 283 298 297 294 295 284 278 228 236 231 217 241 239 223 217 193 175 160 172 200 195 211 204 228 229
321 319 319 312 307 329 308 301 304 299 295 308 308 304 306 318 300 308 277 238 311 295 295 297 308 15 227 233 234 239 236 182 162 181 180 168 167 198 209 204 209 220 247
298 297 295 302 306 306 305 297 287 291 295 315 321 324 315 327 321 303 197 225 269 291 303 325 300 302 288 272 253 255 190 191 176 164 160 189 199 211 207 170 191 198 221
275 286 294 300 292 286 295 304 314 316 316 311 314 324 319 313 308 328 337 324 312 297 318 305 325 332 306 293 164 181 173 147 132 150 174 215 226 200 193 191 192 191 210
278 284 287 280 287 305 298 314 310 304 306 309 305 312 311 302 329 16 329 310 314 310 314 287 282 263 244 226 187 163 157 141 141 180 221 245 213 197 204 196 204 197 214
279 272 289 312 298 312 307 309 320 265 266 245 244 261 303 299 327 317 301 287 283 280 257 269 280 288 255 211 188 158 164 155 174 204 233 211 210 212 184 197 209 227 225
283 289 292 301 306 317 325 324 307 295 256 236 236 198 220 276 296 292 292 291 276 275 245 290 309 292 258 146 115 112 125 162 204 228 198 234 201 205 186 210 214 229 227
299 250 273 305 330 319 317 305 305 301 302 310 82 245 212 231 262 287 294 295 283 227 360 52 42 16 71 77 117 119 241 234 219 203 157 159 199 215 196 228 222 222 207
307 316 338 321 308 308 305 304 303 317 336 320 321 287 151 245 265 282 298 357 39 51 31 53 61 115 110 171 192 177 197 107 104 145 145 172 190 251 231 262 92 99 158
319 76 303 304 315 310 298 313 336 321 312 324 335 358 354 345 14 43 42 39 28 24 345 2 359 53 104 112 97 93 115 139 113 108 83 66 14 293 265 170 137 208 204
322 306 293 283 297 335 346 332 340 345 339 337 336 359 359 20 78 81 91 129 195 115 61 54 47 44 54 54 58 62 82 118 82 64 69 75 28 113 34 53 67 86 156
319 351 337 327 21 9 11 4 0 355 356 358 2 45 55 79 102 124 147 65 54 46 39 35 41 35 31 20 5 28 33 53 58 59 69 92 94 92 98 112 135 147 141
17 327 328 61 58 55 48 41 38 26 31 57 65 66 58 62 138 117 63 56 52 49 40 35 25 32 27 29 28 18 50 53 60 113 110 87 86 88 103 117 125 144 141
338 338 102 75 85 87 75 83 84 72 64 57 64 71 77 17 60 80 74 70 62 53 42 41 43 34 23 37 46 50 56 86 110 79 87 116 117 133 105 107 119 102 109
282 109 120 163 159 132 114 343 78 72 104 119 151 286 29 84 75 82 69 68 60 56 52 44 32 49 48 50 68 75 41 28 32 323 88 87 84 83 76 82 74 94 123
101 141 152 162 263 28 44 28 22 91 99 68 47 60 77 71 82 85 78 67 66 55 48 46 47 50 56 69 63 46 36 21 7 348 349 68 40 150 159 147 161 136 150